American Canyon, CA

4:14 AM PST on January 20, 2017 (GMT -0800)
Napa County

Weather History for KAPC - July, 2014

Change the Weather History Date:

Saturday, July 26, 2014

  Actual Average Record
Temperature  
Mean Temperature 68 °F 65 °F  
Max Temperature 83 °F 78 °F 93 °F (2008)
Min Temperature 53 °F 53 °F 48 °F (2016)
Degree Days  
Heating Degree Days 0    
Month to date heating degree days 10  
Since 1 June heating degree days 53  
Since 1 July heating degree days 10  
Cooling Degree Days 3    
Month to date cooling degree days 60  
Year to date cooling degree days 112  
Since 1 June cooling degree days 101  
Growing Degree Days 20 (Base 50)    
Moisture  
Dew Point 58 °F    
Average Humidity 67    
Maximum Humidity 90    
Minimum Humidity 43    
Precipitation  
Precipitation 0.00 in - 0.00 in (2017)
Month to date precipitation T  
Year to date precipitation 8.27  
Since 1 July precipitation T  
Sea Level Pressure  
Sea Level Pressure 29.88 in    
Wind  
Wind Speed 8 mph (South)    
Max Wind Speed 16 mph    
Max Gust Speed 22 mph    
Visibility 10 miles    
Events      
T = Trace of Precipitation, MM = Missing Value Source: NWS Daily Summary

Daily Weather History Graph

Daily Weather History Graph

Search for Another Location

Airport or City:

Trip Planner

Search our weather history database for the weather conditions in past years. The results will help you decide how hot, cold, wet, or windy it might be!

Date:

Astronomy

Jul. 26, 2014 Rise Set
Actual Time 6:06 AM PDT 8:24 PM PDT
Civil Twilight 5:36 AM PDT 8:53 PM PDT
Nautical Twilight 5:00 AM PDT 9:30 PM PDT
Astronomical Twilight 4:19 AM PDT 10:10 PM PDT
Moon 6:03 AM PDT (7/26) 8:03 PM PDT (7/26)
Length of Visible Light 15h 17m
Length of Day
14h 17m
Waning Crescent, 0% of the Moon is Illuminated
Jul 26
Waning Crescent
Jul 26
New
Aug 3
First Quarter
Aug 10
Full
Aug 17
Last Quarter

Hourly Weather History & Observations

Time (PDT) Temp. Heat Index Dew Point Humidity Pressure Visibility Wind Dir Wind Speed Gust Speed Precip Events Conditions
12:54 AM 63.0 °F - 57.9 °F 84% 29.85 in 10.0 mi South 6.9 mph - N/A   Clear
1:54 AM 59.0 °F - 55.0 °F 87% 29.86 in 10.0 mi ENE 3.5 mph - N/A   Clear
2:54 AM 60.1 °F - 57.0 °F 90% 29.85 in 10.0 mi East 3.5 mph - N/A   Clear
4:54 AM 57.0 °F - 55.0 °F 93% 29.86 in 10.0 mi ESE 4.6 mph - N/A   Clear
5:54 AM 57.9 °F - 55.9 °F 93% 29.87 in 10.0 mi East 4.6 mph - N/A   Clear
6:54 AM 57.9 °F - 55.9 °F 93% 29.88 in 8.0 mi SE 4.6 mph - N/A   Clear
8:54 AM 68.0 °F - 59.0 °F 73% 29.92 in 10.0 mi SW 3.5 mph - N/A   Clear
10:54 AM 73.9 °F - 57.9 °F 57% 29.91 in 10.0 mi SSW 6.9 mph - N/A   Clear
11:54 AM 78.1 °F - 59.0 °F 52% 29.91 in 10.0 mi SSW 6.9 mph - N/A   Clear
12:54 PM 80.1 °F 80.6 °F 57.9 °F 47% 29.90 in 10.0 mi SSW 8.1 mph - N/A   Clear
1:54 PM 81.0 °F 81.1 °F 57.9 °F 45% 29.89 in 10.0 mi SSW 9.2 mph - N/A   Clear
2:54 PM 82.0 °F 81.7 °F 57.0 °F 42% 29.89 in 10.0 mi SSW 13.8 mph - N/A   Clear
3:54 PM 81.0 °F 81.1 °F 57.9 °F 45% 29.87 in 10.0 mi South 10.4 mph - N/A   Clear
4:54 PM 79.0 °F - 55.9 °F 45% 29.86 in 10.0 mi South 12.7 mph - N/A   Clear
5:54 PM 78.1 °F - 57.9 °F 50% 29.85 in 10.0 mi South 11.5 mph - N/A   Clear
6:54 PM 70.0 °F - 59.0 °F 68% 29.85 in 10.0 mi South 10.4 mph - N/A   Clear
7:54 PM 66.0 °F - 60.1 °F 81% 29.86 in 10.0 mi South 9.2 mph - N/A   Clear
8:54 PM 64.0 °F - 59.0 °F 84% 29.88 in 10.0 mi South 9.2 mph - N/A   Clear
9:54 PM 62.1 °F - 59.0 °F 90% 29.90 in 10.0 mi South 10.4 mph - N/A   Clear
10:54 PM 62.1 °F - 59.0 °F 90% 29.91 in 10.0 mi SSW 9.2 mph - N/A   Clear
11:54 PM 62.1 °F - 59.0 °F 90% 29.91 in 10.0 mi SSW 9.2 mph - N/A   Clear